THORAD AGENA D DEB, 42537

Orbit data source: Space-Track

THORAD AGENA D DEB, 42537 is space debris in SSO originally from a launch on Wed, 08 Apr 1970 UTC launched from the Air Force Western Test Range (AFWTR). Debris objects in space refer to the collection of defunct objects orbiting the Earth. Examples of debris include non-operational satellites, rocket bodies, and fragments generated from explosions, collisions, or faulty payload assembly.

Loading next visibility...
Identifier
42537, 1970-025ST
Orbit
SSO
Country
Flag of USUS
Related business
Manufacturer
Unknown
Mission
Spacecraft
Bus & Motor
Unknown
Mass
Unknown
Launch date (UTC)
1970-04-08 (56 years ago)
Launch vehicle
Unknown
Launch site
Air Force Western Test Range (AFWTR)
Object type
Payload
Rocket body
Debris
Shape & HBR
Unknown shape, 0.1 m
Radar Cross Section
Small (<0.1 m²)

Expand to show TLE details & history
Last TLE update: 3 weeks ago

TLE from 3 weeks ago
0 THORAD AGENA D DEB
1 42537U 70025ST  26149.42977461  .00000924  00000-0  88725-3 0  9995
2 42537 100.0196  48.9970 0006904 301.2708  58.7767 13.83246469 50053
Epoch: 2026-05-29T10:18Z
TLE epoch observation values (Epoch: 2026-05-29T10:18:52.526Z)
Latitude
-0.00002°
Longitude
7.31787°
Altitude
952.593 km
Speed
7.377 km/s
True Right ascension
03h 15m 59s
True Declination
0° 00' 00"
Sunlit
Object was in daylight at epoch
Visualization orbit readout
Latitude
Unknown
Longitude
Unknown
Altitude
Unknown
Speed
Unknown
Apparent Right ascension
Unknown
Apparent Declination
Unknown
Sunlit
N/A
Visualization observer readout
Local Sidereal Time
21:39:26
Azimuth
Unknown
Elevation
Unknown
Doppler factor
Unknown
Orbital elements
Apogee altitude
954.728 km
Perigee altitude
944.609 km
Semi-major axis
7,327.806 km
Eccentricity
0.00069
Inclination
100.0196°
RAAN
48.997°
Arg. of periapsis
301.2708°
True anomaly
58.84438°
Mean anomaly
58.7767°
Eccentric anomaly
58.81054°
Mean motion
3.46005 °/min
Orbital period
104.04 mins
BSTAR
0.00088725
Loading maneuver chart data...
Computing Atmospheric mass density...

Documentation

Showing up to 5 results
|